Home   Weather   Szeged   Past weeks

Flag for Hungary Past Weather in Szeged, Hungary — Yesterday and Last 2 Weeks

Now
30 °F

Overcast.


Feels Like: 26 °F
Forecast: 21 / 29 °F
Wind: 3 mph from Northeast

Location: Szeged

Current Time: Jan 17, 2017 at 6:42:22 pm

Latest Report: Jan 17, 2017 at 5:00 pm


Visibility: 6 mi

Pressure: 30.32 "Hg

Humidity: 82%

Dew Point: 25 °F

Location of SzegedLocation

Past Weather in Szeged — Graph

°F

Szeged Temperature Yesterday

Maximum temperature yesterday: 27 °F (at 9:00 pm)
Minimum temperature yesterday: 17 °F (at 5:00 am)
Average temperature yesterday: 22 °F

High & Low Weather Summary for the Past Weeks

 TemperatureHumidityPressure
High40 °F (Jan 12, 2:00 pm)100% (Jan 14, 12:00 am)30.46 "Hg (Jan 14, 12:00 am)
Low0 °F (Jan 8, 5:00 am)29% (Jan 8, 3:00 pm)29.41 "Hg (Jan 13, 7:00 pm)
Average23 °F73%30.10 "Hg
* Reported Jan 2 5:00 pm — Jan 17 5:00 pm, Szeged, Weather by CustomWeather, © 2017

Note: Actual official high and low records may vary slightly from our data, if they occured in-between our weather recording intervals... More about our weather records

Advertising

Szeged Weather History for the Previous 24 Hours

Scroll right to see more
 ConditionsComfort  
Time TempWeatherWind HumidityBarometerVisibility
5:00 pm
Tue, Jan 17
30 °FOvercast.3 mph82%30.32 "Hg6 mi
4:00 pm30 °FOvercast.5 mph79%30.30 "Hg7 mi
3:00 pm31 °FOvercast.5 mph78%30.28 "Hg7 mi
2:00 pm30 °FOvercast.6 mph78%30.27 "Hg9 mi
1:00 pm30 °FOvercast.8 mph77%30.25 "Hg9 mi
12:00 pm29 °FOvercast.6 mph78%30.26 "Hg9 mi
11:00 am28 °FOvercast.6 mph81%30.27 "Hg7 mi
10:00 am27 °FOvercast.6 mph83%30.25 "Hg7 mi
9:00 am26 °FOvercast.6 mph88%30.23 "Hg5 mi
8:00 am24 °FOvercast.5 mph90%30.21 "Hg5 mi
7:00 am25 °FOvercast.5 mph89%30.20 "Hg5 mi
6:00 am24 °FOvercast.6 mph90%30.18 "Hg5 mi
5:00 am25 °FOvercast.6 mph91%30.17 "Hg4 mi
4:00 am25 °FOvercast.6 mph90%30.17 "Hg4 mi
3:00 am26 °FOvercast.6 mph91%30.17 "Hg4 mi
2:00 am26 °FOvercast.5 mph91%30.17 "Hg4 mi
1:00 am25 °FOvercast.5 mph91%30.18 "Hg4 mi
12:00 am26 °FFog.6 mph91%30.17 "Hg3 mi
11:00 pm
Mon, Jan 16
26 °FFog.5 mph93%30.17 "Hg3 mi
10:00 pm27 °FFog.6 mph92%30.16 "Hg3 mi
9:00 pm27 °FFog.7 mph94%30.15 "Hg2 mi
8:00 pm26 °FFog.6 mph97%30.15 "Hg2 mi
7:00 pm26 °FFog.5 mph97%30.14 "Hg2 mi
6:00 pm26 °FFog.5 mph97%30.14 "Hg2 mi
Weather by CustomWeather, © 2017

See weather overviewHow to use our weather pages